DELTA 1 DEB

Satellite information

Favourite Embed

Satellite Type and Status

DEBRISIN ORBIT

Key statistics

Satellite DELTA 1 DEB at a glance.

Uptime

18448

Days in orbit

Revolutions

≈ 13.6

Per day

Orbit

SSO

Sun Synchronous Orbit

Inclination

99.7

Latest

Satellite identification and parameters

Extended collection of information and parameters for DELTA 1 DEB.

Object identification

Identified? True

Debris? True

Object name: DELTA 1 DEB

International designator: 1975-052HW

Object number (NORAD): 21602

Object ID (CCSDS): 21602

Country: UNITED STATES OF AMERICA (US)

Current information (Y/N): Y

RCS size: SMALL

Orbital parameters

Period: 105.965 minutes

Inclination: 99.6534 deg

SMA: 7417.675 km

Apoapsis: 1098.233 km

Periapsis: 980.847 km

RAAN: 15.3681 deg

Eccentricy: 0.00791259

Argument of periapsis: 276.6026 deg

Mean anomaly: 110.385 deg

Mean motion: 13.58942404 rev/day

Mean motion (dot): 0.00002974 rev/day2

B* drag term: 0.0040311845 1/REarth

Two-line elements (TLE)

Creation date: Dec. 12, 2025, 10:14 a.m.

Reference frame: TEME

Reference center: EARTH

Epoch: Dec. 12, 2025, 1:19 a.m. UTC

TLE line 0: 0 DELTA 1 DEB

TLE line 1: 1 21602U 75052HW 25346.05537181 .00002974 00000-0 40312-2 0 9994

TLE line 2: 2 21602 99.6534 15.3681 0079126 276.6026 110.3850 13.58942404677779

Live tracking on map

Real-time ground track for satellite DELTA 1 DEB.

In-orbit conjunctions

A list of the most updated potential collisions computed for object DELTA 1 DEB.

Target Orbit TCA Probability of collision Miss distance Type
DELTA 1 DEB LEO 2025-11-16 12:47:57 0.0001398479 173.0 (m) DEBRIS
DELTA 1 DEB SSO 2024-12-06 11:51:19 0.0001167419 186.0 (m) DEBRIS

Associated space launch

Experimental meteorological satellite

DELTA 1 DEB was lifted into orbit during the mission ‘Delta 2910 | Nimbus 6’, on board a Delta 2910 space rocket.

The launch took place on June 12, 1975, 8:12 a.m. from Space Launch Complex 2W.

For more information about the launch, click the button.

Launch to space Delta 2910 | Nimbus 6
Delta 2910 | Nimbus 6

Agency: N/A

Status: Launch Successful

Launch date: June 12, 1975, 8:12 a.m. UTC

Rocket: Delta 2910

Launch pad: Space Launch Complex 2W

Location: Vandenberg SFB, CA, USA

...

Latest news about this satellite

There are no fresh news available about this satellite. Check back as we update our databases every day.


Newsletter sign-up

Weekly statistics, charts and insights to help you stay on top of the space industry.